Regional Weather Roundup
Issued by NWS Goodland, KS

Home | Current Version | Previous Version | Text Only | Print | Product List | Glossary Off
Versions: 1 2 3 4 5 6 7 8 9 10 11 12 13 14 15 16 17 18 19 20 21 22 23 24 25 26 27 28 29 30 31 32 33 34 35 36 37 38 39 40 41 42 43 44 45 46 47 48 49 50

000
ASUS43 KGLD 231608
RWRGLD

GOODLAND FORECAST AREA HOURLY WEATHER ROUNDUP
NATIONAL WEATHER SERVICE GOODLAND KS
1000 AM MDT TUE SEP 23 2014

...OFFICIAL OBSERVATIONS...

CITY           SKY/WX    TMP DP  RH WIND       PRES   REMARKS
GOODLAND KS    MOSUNNY   68  61  78 SW9       30.08S
HILL CITY KS   CLOUDY    65  54  67 S14       30.06F
IMPERIAL NEB   MOSUNNY   70  58  65 SW10      30.03S
MCCOOK NEB     MOSUNNY   65  58  78 S9        30.04F
AKRON CO       PTSUNNY   65  56  72 W10       30.12R
BURLINGTON CO  MOSUNNY   69  60  73 W7        30.09F
LIMON CO       SUNNY     72  47  40 CALM      30.16S
$$

...UNOFFICIAL OBSERVATIONS...

CITY           SKY/WX    TMP DP  RH WIND       PRES   REMARKS
COLBY KS       SUNNY     70  64  83 S10       30.06F
GOVE KS          N/A     70  32  24 MISG        N/A
NORTON KS      MOSUNNY   66  54  63 S12       30.04F
SHARON SPRINGS   N/A     72  62  72 CALM        N/A
WAKEENEY KS      N/A     67  50  53 MISG        N/A
KIT CARSON CO    N/A     76  58  52 CALM        N/A
YUMA CO          N/A     67  60  79 SW9         N/A
$$


USA.gov is the U.S. government's official web portal to all federal, state and local government web resources and services.